AB5KT-1 Weather Reports


Display with metric or nautical units.
time (UTC)temp
F
wind
direction
speed
MPH
gust
MPH
rain 1hr
in
rain 24hr
in
rain mn
in
humidity
%
barometer
mb
20220818053043 84 223 6.0 13.0 0.00 0.00 0.00 82 1013.6
20220818053031 84 235 7.0 15.0 0.00 0.00 0.00 82 1013.5
20220818052535 84 140 7.0 15.0 0.00 0.00 0.00 81 1013.6
20220818052155 84 164 7.0 12.0 0.00 0.00 0.00 81 1013.7
20220818052031 84 191 7.0 13.0 0.00 0.00 0.00 81 1013.6
20220818051157 84 171 7.0 14.0 0.00 0.00 0.00 81 1013.7
20220818051031 84 254 7.0 13.0 0.00 0.00 0.00 81 1013.6
20220818050029 84 178 7.0 14.0 0.00 0.00 0.00 81 1013.6
20220818045029 84 191 7.0 12.0 0.00 0.00 0.00 81 1013.7
20220818044528 84 134 7.0 12.0 0.00 0.00 0.00 81 1013.6
20220818044029 84 147 6.0 12.0 0.00 0.00 0.00 81 1013.6
20220818043530 84 200 6.0 11.0 0.00 0.00 0.00 82 1013.6
20220818043035 84 113 7.0 11.0 0.00 0.00 0.00 82 1013.5
20220818043029 84 155 6.0 11.0 0.00 0.00 0.00 82 1013.6
20220818042530 84 58 7.0 11.0 0.00 0.00 0.00 82 1013.6
20220818041530 84 162 7.0 14.0 0.00 0.00 0.00 83 1013.5
20220818041029 84 130 8.0 14.0 0.00 0.00 0.00 82 1013.5
20220818040654 84 169 6.0 12.0 0.00 0.00 0.00 83 1013.5
20220818040535 84 176 7.0 18.0 0.00 0.00 0.00 83 1013.5
20220818040529 84 106 8.0 18.0 0.00 0.00 0.00 83 1013.5
20220818035650 84 146 7.0 12.0 0.00 0.00 0.00 82 1013.3
20220818035153 84 182 6.0 12.0 0.00 0.00 0.00 81 1013.3
20220818035029 84 182 6.0 12.0 0.00 0.00 0.00 82 1013.4
20220818034935 85 111 8.0 14.0 0.00 0.00 0.00 80 1013.3
20220818034029 85 167 7.0 12.0 0.00 0.00 0.00 81 1013.3
20220818033150 85 143 7.0 13.0 0.00 0.00 0.00 81 1013.2
20220818031527 84 158 7.0 14.0 0.00 0.00 0.00 80 1013.3
20220818031028 84 173 7.0 13.0 0.00 0.00 0.00 81 1013.2
20220818030528 84 168 6.0 12.0 0.00 0.00 0.00 81 1013.2
20220818030028 84 133 6.0 12.0 0.00 0.00 0.00 82 1013.2
20220818025528 85 164 6.0 11.0 0.00 0.00 0.00 82 1013.1
20220818025154 85 117 7.0 13.0 0.00 0.00 0.00 82 1012.9
20220818025033 85 138 6.0 12.0 0.00 0.00 0.00 82 1013.1
20220818025027 84 135 6.0 12.0 0.00 0.00 0.00 82 1013.0
20220818024526 85 178 7.0 13.0 0.00 0.00 0.00 83 1013.0
20220818023025 85 155 6.0 12.0 0.00 0.00 0.00 82 1012.8
20220818022534 85 153 7.0 12.0 0.00 0.00 0.00 81 1012.9
20220818022525 85 160 6.0 11.0 0.00 0.00 0.00 82 1012.8
20220818022026 85 144 6.0 11.0 0.00 0.00 0.00 81 1012.8
20220818021030 85 148 6.0 12.0 0.00 0.00 0.00 81 1012.9
20220818021026 85 179 6.0 12.0 0.00 0.00 0.00 81 1012.8
20220818020025 85 144 6.0 12.0 0.00 0.00 0.00 82 1012.9
20220818015526 85 180 7.0 12.0 0.00 0.00 0.00 82 1012.9
20220818015150 85 167 6.0 11.0 0.00 0.00 0.00 81 1012.8
20220818015029 85 169 5.0 10.0 0.00 0.00 0.00 81 1012.9
20220818015023 85 153 7.0 11.0 0.00 0.00 0.00 82 1012.9
20220818014523 85 134 6.0 11.0 0.00 0.00 0.00 81 1012.9
20220818014308 85 152 5.0 11.0 0.00 0.00 0.00 80 1012.8
20220818013523 85 142 6.0 11.0 0.00 0.00 0.00 81 1012.9
20220818012652 85 153 4.0 11.0 0.00 0.00 0.00 80 1012.9
20220818012523 85 173 6.0 11.0 0.00 0.00 0.00 80 1012.8
20220818011524 85 146 4.0 11.0 0.00 0.00 0.00 80 1012.9
20220818011147 86 140 5.0 12.0 0.00 0.00 0.00 80 1012.9
20220818010523 85 217 5.0 12.0 0.00 0.00 0.00 80 1012.8
20220818010149 86 140 3.0 11.0 0.00 0.00 0.00 80 1012.7
20220818010145 86 186 4.0 11.0 0.00 0.00 0.00 80 1012.8
20220818005022 86 196 4.0 11.0 0.00 0.00 0.00 79 1012.8
20220818004643 86 131 5.0 11.0 0.00 0.00 0.00 80 1012.7
20220818004155 87 76 5.0 11.0 0.00 0.00 0.00 78 1012.7
20220818003522 86 149 4.0 11.0 0.00 0.00 0.00 80 1012.6
20220818003027 87 189 3.0 11.0 0.00 0.00 0.00 79 1012.7
20220818003021 86 103 3.0 11.0 0.00 0.00 0.00 79 1012.7
20220818002149 88 187 4.0 10.0 0.00 0.00 0.00 77 1012.8
20220818002143 87 57 5.0 11.0 0.00 0.00 0.00 77 1012.6
20220818001807 88 110 4.0 11.0 0.00 0.00 0.00 77 1012.9
20220818001639 87 146 4.0 11.0 0.00 0.00 0.00 78 1012.6
20220818000521 87 40 4.0 9.0 0.00 0.00 0.00 77 1012.7
20220818000140 88 126 4.0 10.0 0.00 0.00 0.00 77 1012.9
20220817234529 88 80 4.0 11.0 0.00 0.00 0.00 76 1013.0
20220817234521 88 94 4.0 12.0 0.00 0.00 0.00 76 1012.9
20220817234022 88 161 4.0 12.0 0.00 0.00 0.00 76 1013.0
20220817233642 88 157 4.0 11.0 0.00 0.00 0.00 76 1013.1
20220817233139 89 157 4.0 12.0 0.00 0.00 0.00 75 1013.2
20220817232637 89 0 4.0 12.0 0.00 0.00 0.00 75 1013.2
20220817232141 89 148 5.0 13.0 0.00 0.00 0.00 74 1013.4
20220817231517 89 62 5.0 13.0 0.00 0.00 0.00 75 1013.3
20220817231016 89 134 6.0 13.0 0.00 0.00 0.00 74 1013.4
20220817230515 89 171 5.0 13.0 0.00 0.00 0.00 75 1013.4
20220817230139 89 200 5.0 13.0 0.00 0.00 0.00 74 1013.4
20220817225635 89 141 5.0 11.0 0.00 0.00 0.00 74 1013.5
20220817225017 89 119 5.0 13.0 0.00 0.00 0.00 74 1013.4
20220817224637 89 77 5.0 11.0 0.00 0.00 0.00 74 1013.6
20220817224256 89 59 5.0 13.0 0.00 0.00 0.00 76 1013.5
20220817224145 89 103 4.0 11.0 0.00 0.00 0.00 75 1013.5
20220817224016 89 177 5.0 11.0 0.00 0.00 0.00 74 1013.6
20220817223014 89 142 5.0 11.0 0.00 0.00 0.00 76 1013.6
20220817221513 89 87 7.0 13.0 0.00 0.00 0.00 76 1013.7
20220817221018 89 94 4.0 13.0 0.00 0.00 0.00 75 1013.6
20220817221013 89 113 6.0 13.0 0.00 0.00 0.00 75 1013.6
20220817220637 89 155 6.0 11.0 0.00 0.00 0.00 76 1013.7
20220817220014 89 112 5.0 11.0 0.00 0.00 0.00 75 1013.7
20220817215017 89 71 6.0 13.0 0.00 0.00 0.00 75 1013.6
20220817215013 89 44 6.0 12.0 0.00 0.00 0.00 75 1013.6
20220817214632 89 112 5.0 13.0 0.00 0.00 0.00 75 1013.5
20220817214131 89 123 5.0 12.0 0.00 0.00 0.00 75 1013.5
20220817213638 90 21 4.0 10.0 0.00 0.00 0.00 73 1013.8
20220817213629 89 49 5.0 10.0 0.00 0.00 0.00 74 1013.6
20220817212509 89 180 5.0 12.0 0.00 0.00 0.00 74 1013.7
20220817212009 89 60 5.0 12.0 0.00 0.00 0.00 73 1013.7
20220817211629 90 52 4.0 10.0 0.00 0.00 0.00 73 1013.8
20220817211135 90 82 4.0 11.0 0.00 0.00 0.00 72 1013.8
20220817205513 89 116 5.0 11.0 0.00 0.00 0.00 73 1014.0
20220817205508 90 128 5.0 11.0 0.00 0.00 0.00 72 1014.0
20220817204512 90 34 5.0 10.0 0.00 0.00 0.00 72 1014.0
20220817204508 89 66 5.0 10.0 0.00 0.00 0.00 72 1014.0
20220817204126 89 93 5.0 10.0 0.00 0.00 0.00 72 1014.1
20220817203506 89 11 5.0 10.0 0.00 0.00 0.00 73 1014.0
20220817203129 89 97 5.0 10.0 0.00 0.00 0.00 73 1014.2
20220817202011 89 128 5.0 11.0 0.00 0.00 0.00 73 1014.3
20220817202007 89 155 5.0 11.0 0.00 0.00 0.00 72 1014.3
20220817201006 89 192 5.0 12.0 0.00 0.00 0.00 73 1014.3
20220817200510 89 71 5.0 11.0 0.00 0.00 0.00 73 1014.4
20220817200505 89 110 5.0 12.0 0.00 0.00 0.00 73 1014.4
20220817200126 89 86 5.0 11.0 0.00 0.00 0.00 74 1014.5
20220817195503 89 11 4.0 9.0 0.00 0.00 0.00 73 1014.4
20220817195005 89 80 5.0 11.0 0.00 0.00 0.00 73 1014.5
20220817194004 89 74 5.0 11.0 0.00 0.00 0.00 74 1014.6
20220817193504 89 114 5.0 11.0 0.00 0.00 0.00 74 1014.6
20220817193009 90 65 4.0 11.0 0.00 0.00 0.00 73 1014.8
20220817193005 89 115 5.0 11.0 0.00 0.00 0.00 72 1014.7
20220817192627 90 36 4.0 10.0 0.00 0.00 0.00 72 1014.8
20220817191504 90 161 4.0 9.0 0.00 0.00 0.00 73 1014.8
20220817191001 90 140 4.0 12.0 0.00 0.00 0.00 72 1014.8
20220817190629 90 190 5.0 11.0 0.00 0.00 0.00 73 1014.9
20220817190505 90 91 4.0 10.0 0.00 0.00 0.00 73 1015.0
20220817190500 90 200 4.0 12.0 0.00 0.00 0.00 73 1014.9
20220817190123 90 75 4.0 10.0 0.00 0.00 0.00 73 1015.0
20220817185122 90 50 5.0 11.0 0.00 0.00 0.00 73 1015.0
20220817183959 90 62 4.0 11.0 0.00 0.00 0.00 73 1015.0
20220817183500 90 59 5.0 11.0 0.00 0.00 0.00 73 1014.9
20220817183001 90 99 4.0 10.0 0.00 0.00 0.00 72 1015.0
20220817182000 90 55 6.0 12.0 0.00 0.00 0.00 73 1015.0
20220817181503 89 192 5.0 11.0 0.00 0.00 0.00 73 1015.1
20220817181459 89 162 6.0 12.0 0.00 0.00 0.00 74 1015.0
20220817181130 90 53 4.0 12.0 0.00 0.00 0.00 73 1015.1
20220817181125 89 132 6.0 11.0 0.00 0.00 0.00 74 1015.1
20220817180001 89 96 5.0 12.0 0.00 0.00 0.00 73 1015.1
20220817175620 90 92 5.0 10.0 0.00 0.00 0.00 73 1015.1
20220817175245 90 165 4.0 11.0 0.00 0.00 0.00 74 1015.2
20220817174621 90 165 4.0 12.0 0.00 0.00 0.00 73 1015.2
20220817174501 90 157 4.0 12.0 0.00 0.00 0.00 73 1015.1
20220817174457 90 79 4.0 10.0 0.00 0.00 0.00 73 1015.2
20220817173116 89 207 4.0 11.0 0.00 0.00 0.00 74 1015.2
20220817171954 89 76 4.0 9.0 0.00 0.00 0.00 74 1015.2
20220817171744 89 46 5.0 10.0 0.00 0.00 0.00 74 1015.4
20220817171459 89 141 4.0 10.0 0.00 0.00 0.00 73 1015.3
20220817171454 89 54 4.0 10.0 0.00 0.00 0.00 74 1015.3
20220817171114 89 132 4.0 10.0 0.00 0.00 0.00 74 1015.3
20220817170619 89 175 4.0 10.0 0.00 0.00 0.00 74 1015.4
20220817170455 89 171 3.0 9.0 0.00 0.00 0.00 74 1015.3
20220817164505 89 172 5.0 10.0 0.00 0.06 0.00 75 1015.3
20220817164454 89 161 4.0 9.0 0.00 0.00 0.00 74 1015.4
20220817163954 89 92 4.0 9.0 0.00 0.00 0.00 74 1015.3
20220817163453 89 119 4.0 9.0 0.00 0.00 0.00 74 1015.3
20220817162955 89 54 5.0 11.0 0.00 0.00 0.00 74 1015.3
20220817162454 89 133 5.0 11.0 0.00 0.01 0.00 74 1015.3
20220817162116 89 140 5.0 11.0 0.00 0.11 0.00 74 1015.2
20220817160953 89 144 4.0 11.0 0.00 0.11 0.00 73 1015.2
20220817160453 89 191 4.0 8.0 0.00 0.11 0.00 74 1015.2
20220817160000 89 229 4.0 10.0 0.00 0.11 0.00 75 1015.2
20220817155955 89 229 4.0 10.0 0.00 0.11 0.00 75 1015.2
20220817155616 88 150 5.0 10.0 0.00 0.11 0.00 75 1015.1
20220817154954 89 158 5.0 10.0 0.00 0.11 0.00 75 1015.2
20220817153955 88 134 5.0 10.0 0.00 0.11 0.00 75 1015.1
20220817153455 88 163 5.0 11.0 0.00 0.11 0.00 76 1015.1
20220817152955 88 140 5.0 11.0 0.00 0.11 0.00 75 1015.0
20220817152459 88 241 4.0 9.0 0.00 0.11 0.00 75 1015.0
20220817152454 88 168 5.0 10.0 0.00 0.11 0.00 75 1015.1
20220817152116 88 159 3.0 8.0 0.00 0.11 0.00 76 1015.0
20220817150954 88 57 3.0 8.0 0.00 0.11 0.00 75 1015.1
20220817150625 88 202 2.0 7.0 0.00 0.11 0.00 76 1015.2
20220817150459 88 122 2.0 8.0 0.00 0.11 0.00 76 1015.1
20220817150455 89 90 2.0 8.0 0.00 0.11 0.00 75 1015.1
20220817150120 88 154 2.0 8.0 0.00 0.11 0.00 76 1015.2
20220817145001 88 226 1.0 6.0 0.00 0.11 0.00 76 1015.3
20220817144955 88 126 2.0 7.0 0.00 0.11 0.00 75 1015.2
20220817143453 87 104 2.0 7.0 0.00 0.11 0.00 76 1015.2
20220817142953 87 198 2.0 6.0 0.00 0.11 0.00 77 1015.3
20220817142735 87 145 4.0 9.0 0.00 0.11 0.00 78 1015.2
20220817142459 87 118 2.0 9.0 0.00 0.11 0.00 77 1015.2
20220817142455 87 150 3.0 9.0 0.00 0.11 0.00 77 1015.2
20220817142355 86 148 3.0 8.0 0.00 0.11 0.00 78 1015.3
20220817141611 87 142 4.0 9.0 0.00 0.11 0.00 78 1015.2
20220817140113 87 196 3.0 9.0 0.00 0.11 0.00 78 1015.3
20220817135452 87 126 2.0 8.0 0.00 0.11 0.00 78 1015.4
20220817135113 86 148 3.0 9.0 0.00 0.11 0.00 78 1015.2
20220817133958 86 146 3.0 9.0 0.00 0.11 0.00 79 1014.8
20220817133953 86 181 4.0 8.0 0.00 0.11 0.00 78 1015.1
20220817133453 86 140 3.0 9.0 0.00 0.11 0.00 78 1014.9
20220817132457 85 224 3.0 8.0 0.00 0.11 0.00 79 1014.8
20220817132453 86 165 4.0 8.0 0.00 0.11 0.00 79 1014.8
20220817131458 85 161 2.0 7.0 0.00 0.11 0.00 80 1014.7
20220817131453 85 150 3.0 8.0 0.00 0.11 0.00 79 1014.7
20220817130953 85 134 3.0 7.0 0.00 0.11 0.00 80 1014.7
20220817125949 84 169 1.0 7.0 0.00 0.11 0.00 81 1014.7
20220817125448 84 165 1.0 4.0 0.00 0.11 0.00 81 1014.8
20220817124959 83 132 1.0 6.0 0.00 0.11 0.00 83 1014.8
20220817124948 84 213 2.0 5.0 0.00 0.11 0.00 81 1014.8
20220817124449 83 155 2.0 5.0 0.00 0.11 0.00 82 1014.8
20220817124119 82 167 0.0 4.0 0.00 0.11 0.00 83 1014.7
20220817123948 83 143 1.0 6.0 0.00 0.11 0.00 82 1014.7
20220817123449 83 97 1.0 6.0 0.00 0.11 0.00 82 1014.8
20220817122619 82 181 1.0 5.0 0.00 0.11 0.00 83 1014.5
20220817122448 82 197 1.0 6.0 0.00 0.11 0.00 83 1014.7
20220817122111 82 173 1.0 4.0 0.00 0.11 0.00 83 1014.6
20220817120946 82 166 1.0 5.0 0.00 0.11 0.00 83 1014.4
20220817115952 82 137 1.0 7.0 0.00 0.11 0.00 83 1014.2
20220817115947 82 215 1.0 7.0 0.00 0.11 0.00 83 1014.3
20220817115605 83 141 2.0 7.0 0.00 0.11 0.00 83 1014.0
20220817114947 82 129 1.0 5.0 0.00 0.11 0.00 83 1014.1
20220817114447 82 124 2.0 7.0 0.00 0.11 0.00 83 1014.1
20220817113946 83 252 2.0 7.0 0.00 0.11 0.00 83 1014.1
20220817113447 83 150 1.0 5.0 0.00 0.11 0.00 83 1014.0
20220817113111 83 234 4.0 9.0 0.00 0.11 0.00 83 1013.7
20220817113105 83 210 3.0 7.0 0.00 0.11 0.00 83 1013.9
20220817111942 83 232 4.0 8.0 0.00 0.11 0.00 83 1013.8
20220817110942 83 91 4.0 9.0 0.00 0.11 0.00 83 1013.6
20220817110443 83 205 4.0 9.0 0.00 0.11 0.00 83 1013.6
20220817105945 83 134 4.0 9.0 0.00 0.11 0.00 83 1013.6
20220817105939 83 199 4.0 9.0 0.00 0.11 0.00 83 1013.5
20220817104945 83 142 2.0 7.0 0.00 0.11 0.00 83 1013.2
20220817104936 83 123 3.0 7.0 0.00 0.11 0.00 83 1013.4
20220817104437 83 203 3.0 7.0 0.00 0.11 0.00 83 1013.4
20220817104106 83 192 5.0 10.0 0.00 0.11 0.00 82 1013.2
20220817103935 83 153 3.0 7.0 0.00 0.11 0.00 83 1013.4
20220817103040 83 142 4.0 10.0 0.00 0.11 0.00 83 1013.2
20220817101935 83 143 5.0 9.0 0.00 0.11 0.00 82 1013.0
20220817101434 83 173 4.0 9.0 0.00 0.11 0.00 82 1013.1
20220817100935 83 165 4.0 9.0 0.00 0.11 0.00 82 1013.1
20220817100434 83 179 5.0 9.0 0.00 0.11 0.00 82 1013.2
20220817095934 83 171 4.0 9.0 0.00 0.11 0.00 82 1013.3
20220817095439 83 144 5.0 11.0 0.00 0.11 0.00 82 1013.1
20220817095434 83 134 4.0 9.0 0.00 0.11 0.00 82 1013.2
20220817095101 83 144 4.0 8.0 0.00 0.11 0.00 82 1013.1
20220817094934 83 218 5.0 8.0 0.00 0.11 0.00 82 1013.2
20220817093934 83 182 4.0 11.0 0.00 0.11 0.00 82 1013.1
20220817093554 83 210 4.0 12.0 0.00 0.11 0.00 82 1013.1
20220817092932 83 209 4.0 8.0 0.00 0.11 0.00 82 1013.2
20220817091939 83 150 4.0 8.0 0.00 0.11 0.00 82 1013.2
20220817091935 83 122 4.0 12.0 0.00 0.11 0.00 82 1013.2
20220817090936 83 208 4.0 8.0 0.00 0.11 0.00 82 1013.3
20220817090437 83 184 5.0 9.0 0.00 0.11 0.00 82 1013.3
20220817090432 83 153 4.0 8.0 0.00 0.11 0.00 82 1013.4
20220817090059 83 95 4.0 9.0 0.00 0.11 0.00 82 1013.4
20220817085933 83 167 4.0 9.0 0.00 0.11 0.00 82 1013.3
20220817085712 83 205 5.0 11.0 0.00 0.11 0.00 81 1013.5
20220817084428 83 153 5.0 8.0 0.00 0.11 0.00 82 1013.4
20220817083933 83 191 5.0 9.0 0.00 0.11 0.00 82 1013.5
20220817083601 83 113 5.0 10.0 0.00 0.11 0.00 82 1013.4
20220817083550 83 142 5.0 10.0 0.00 0.11 0.00 82 1013.5
20220817082928 83 210 5.0 11.0 0.00 0.11 0.00 82 1013.5
20220817081433 84 221 6.0 10.0 0.00 0.11 0.00 82 1013.5
20220817081429 83 205 5.0 10.0 0.00 0.11 0.00 82 1013.6
20220817080431 84 189 6.0 12.0 0.00 0.11 0.00 82 1013.4
20220817080427 83 182 6.0 12.0 0.00 0.11 0.00 82 1013.4
20220817080053 84 182 5.0 10.0 0.00 0.11 0.00 82 1013.3
20220817080047 84 148 5.0 10.0 0.00 0.11 0.00 82 1013.4
20220817074426 84 154 6.0 11.0 0.00 0.11 0.00 82 1013.3
20220817073932 83 157 5.0 10.0 0.00 0.11 0.00 82 1013.3
20220817073925 84 201 5.0 11.0 0.00 0.11 0.00 82 1013.3
20220817073427 83 159 5.0 10.0 0.00 0.11 0.00 82 1013.2
20220817072424 84 168 4.0 9.0 0.00 0.11 0.00 82 1013.4
20220817071930 84 158 5.0 10.0 0.00 0.11 0.00 82 1013.5
20220817071924 84 156 5.0 10.0 0.00 0.11 0.00 82 1013.4
20220817071544 84 113 5.0 10.0 0.00 0.11 0.00 82 1013.5
20220817071048 84 227 5.0 10.0 0.00 0.11 0.00 82 1013.6
20220817070545 84 151 6.0 11.0 0.00 0.11 0.00 83 1013.6
20220817065924 84 165 5.0 10.0 0.00 0.11 0.00 83 1013.6
20220817065425 84 123 6.0 11.0 0.00 0.11 0.00 83 1013.6
20220817065051 84 195 7.0 12.0 0.00 0.11 0.00 82 1013.6
20220817065046 84 176 6.0 12.0 0.00 0.11 0.00 83 1013.6
20220817063425 84 156 6.0 11.0 0.00 0.11 0.00 82 1013.6
20220817062924 84 146 6.0 11.0 0.00 0.11 0.00 82 1013.6
20220817062429 84 142 6.0 12.0 0.00 0.11 0.00 82 1013.6
20220817061924 84 154 6.0 12.0 0.00 0.11 0.00 82 1013.5
20220817061429 84 125 7.0 11.0 0.00 0.11 0.00 82 1013.5
20220817061425 84 227 6.0 12.0 0.00 0.11 0.00 82 1013.5
20220817055921 84 142 6.0 12.0 0.00 0.11 0.00 82 1013.4
20220817055705 84 216 7.0 12.0 0.00 0.11 0.00 82 1013.4
20220817055546 84 96 8.0 14.0 0.00 0.11 0.00 82 1013.5
20220817055427 84 144 7.0 14.0 0.00 0.11 0.00 82 1013.5
20220817055423 84 163 7.0 11.0 0.00 0.11 0.00 82 1013.5
20220817054708 84 158 7.0 12.0 0.00 0.11 0.00 82 1013.4